Location: Chefe Valiua
(16.5342°S, 37.2214°E)
Time: 01:25:54
(UTC+00:00)

S3M - Pass Details

Date: 19 January 2021
Orbit: 949 x 1004 km, 83.0° (Epoch: 07 March)

Event Time Altitude Azimuth Distance (km) Brightness Sun altitude
Exits shadow 18:06:45 59° 81° (E) 1,103 3.9 -25.7°
Maximum altitude 18:06:54 59° 88° (E) 1,101 3.9 -25.7°
Drops below altitude 10° 18:13:01 10° 166° (SSE) 2,728 6.5 -26.9°
Sets 18:15:35 0° 169° (S) 3,689 7.3 -27.4°
